Regional Weather Roundup
Issued by NWS

Home | Current Version | Previous Version | Text Only | Print | Product List | Glossary On
Versions: 1 2 3 4 5 6 7 8 9 10 11 12 13 14 15 16 17 18 19 20 21 22 23 24 25 26 27 28 29 30 31 32 33 34 35 36 37 38 39 40 41 42 43 44 45 46 47 48 49 50
636
ASCA42 TJSJ 250010
RWRPR
PUERTO RICO/U.S. VIRGIN ISLANDS HOURLY WEATHER ROUNDUP
NATIONAL WEATHER SERVICE SAN JUAN PR
800 PM AST SUN JUL 24 2016

PRZ001-004-250100-
PUERTO RICO

CITY           SKY/WX    TMP DP  RH WIND       PRES   REMARKS
SAN JUAN LMM   PTCLDY    82  75  78 E8        30.01R
AGUADILLA      CLEAR     77  72  83 CALM      30.02S
CEIBA          CLEAR     82  73  74 E8        30.03R
$$

PRZ006-007-250100-
U.S. VIRGIN ISLANDS

CITY           SKY/WX    TMP DP  RH WIND       PRES   REMARKS
CHARLOTTE AMA  CLEAR     84  75  74 E12       30.00R HX  92
$$

HOURLY WEATHER ROUNDUP FOR THE NEWS MEDIA

CITY           SKY/WX    TMP DP  RH WIND       PRES   REMARKS
ORLANDO        CLOUDY    83  72  69 S16       30.04R
NEW YORK       MOCLDY    78  69  73 S17       29.96R
NEWARK         MOCLDY    87  67  51 S14       29.93R HX  90
CHICAGO        CLOUDY    73  68  84 S15       29.88R THUNDER
HARTFORD       CLEAR     75  64  68 SW10      29.93S
BOSTON         PTCLDY    75  63  66 N6        29.94R
DALLAS         MOSUNNY   98  68  37 SE3       29.87F HX 103
PHILADELPHIA   MOCLDY    89  66  46 S9        29.96R HX  91
LOS ANGELES    MOSUNNY   79  66  64 W10       29.88F
WASHINGTON DC  MOCLDY    89  69  51 S8        29.96R HX  93



USA.gov is the U.S. government's official web portal to all federal, state and local government web resources and services.